sat.trackr.live / text

‹ back to catalog

STARLINK-37588

NORAD 69842 · 2026-154Z

PAYLOAD ACTIVE UNKNOWN

§ Identity

Operator
Country
US
Launch date
2026-07-05
Launch site
AFETR
Launch vehicle
Mass (kg)
RCS (m²)

Purposes: comms

External: N2YO · Heavens-Above · Gunter

§ Orbital elements

Epoch: 2026-09-20T04:53:36.763008Z

Period
93.85 min
Inclination
53.1549°
Eccentricity
0.0001720
Mean motion
15.34405024 rev/d
Perigee alt
461.5 km
Apogee alt
463.9 km
Semi-major
6,840.8 km
B*
6.0966e-4
RAAN
333.0139°
Arg perigee
85.6670°
Mean anomaly
274.4529°
Rev number
1,319

§ Raw data

STARLINK-375881 69842U 26154Z   26263.20389772  .00020281  00000+0  60966-3 0  99962 69842  53.1549 333.0139 0001720  85.6670 274.4529 15.34405024 13197

JSON: /api/v1/satellites/69842 · /tle

For live sub-satellite position, see the globe view (requires WebGL).

§ Visibility from observer

Set your observer location to see the next 7 days of passes ≥ 10°. The values pass through the URL so the page stays shareable.

No JS? Fill the form by hand. The geolocation button needs JavaScript.